| time (UTC) | temp F | wind direction | speed MPH | gust MPH | rain 1hr in | rain 24hr in | rain mn in | humidity % | barometer mb |
| 20260510174517 | 75 | 0.0 | 0.0 | 0.00 | 0.00 | 0.00 | 61 | 1007.6 | |
| 20260510173517 | 75 | 0.0 | 0.0 | 0.00 | 0.00 | 0.00 | 58 | 1007.7 | |
| 20260510172517 | 75 | 0.0 | 0.0 | 0.00 | 0.00 | 0.00 | 58 | 1007.8 | |
| 20260510171516 | 76 | 318 | 0.0 | 1.0 | 0.00 | 0.00 | 0.00 | 55 | 1007.8 |
| 20260510170517 | 75 | 86 | 0.0 | 2.0 | 0.00 | 0.00 | 0.00 | 57 | 1007.9 |
| 20260510165517 | 75 | 0.0 | 0.0 | 0.00 | 0.00 | 0.00 | 58 | 1007.9 | |
| 20260510164516 | 76 | 0.0 | 0.0 | 0.00 | 0.00 | 0.00 | 58 | 1008.1 | |
| 20260510163517 | 76 | 0.0 | 0.0 | 0.00 | 0.00 | 0.00 | 53 | 1008.1 | |
| 20260510162517 | 76 | 0.0 | 0.0 | 0.00 | 0.00 | 0.00 | 50 | 1008.3 | |
| 20260510161517 | 75 | 0.0 | 0.0 | 0.00 | 0.00 | 0.00 | 58 | 1008.3 | |
| 20260510160517 | 74 | 0.0 | 0.0 | 0.00 | 0.00 | 0.00 | 62 | 1008.3 | |
| 20260510155517 | 75 | 0.0 | 0.0 | 0.00 | 0.00 | 0.00 | 57 | 1008.4 | |
| 20260510154537 | 75 | 337 | 0.0 | 2.0 | 0.00 | 0.00 | 0.00 | 59 | 1008.5 |
| 20260510153537 | 75 | 0.0 | 2.0 | 0.00 | 0.00 | 0.00 | 55 | 1008.5 | |
| 20260510152516 | 74 | 0.0 | 1.0 | 0.00 | 0.00 | 0.00 | 53 | 1008.4 | |
| 20260510151516 | 73 | 0.0 | 0.0 | 0.00 | 0.00 | 0.00 | 57 | 1008.3 | |
| 20260510150517 | 73 | 0.0 | 0.0 | 0.00 | 0.00 | 0.00 | 58 | 1008.4 | |
| 20260510145517 | 72 | 0.0 | 0.0 | 0.00 | 0.00 | 0.00 | 58 | 1008.4 | |
| 20260510144537 | 71 | 0.0 | 0.0 | 0.00 | 0.00 | 0.00 | 64 | 1008.2 | |
| 20260510143517 | 70 | 0.0 | 0.0 | 0.00 | 0.00 | 0.00 | 71 | 1008.1 | |
| 20260510142517 | 69 | 0.0 | 0.0 | 0.00 | 0.00 | 0.00 | 70 | 1007.9 | |
| 20260510141516 | 67 | 0.0 | 0.0 | 0.00 | 0.00 | 0.00 | 76 | 1007.9 | |
| 20260510140517 | 67 | 0.0 | 0.0 | 0.00 | 0.00 | 0.00 | 77 | 1007.9 | |
| 20260510135516 | 66 | 0.0 | 0.0 | 0.00 | 0.00 | 0.00 | 79 | 1008.0 | |
| 20260510134537 | 65 | 0.0 | 0.0 | 0.00 | 0.00 | 0.00 | 81 | 1008.0 | |
| 20260510133537 | 64 | 0.0 | 0.0 | 0.00 | 0.00 | 0.00 | 81 | 1008.0 | |
| 20260510132537 | 64 | 0.0 | 0.0 | 0.00 | 0.00 | 0.00 | 82 | 1007.8 | |
| 20260510131516 | 63 | 0.0 | 0.0 | 0.00 | 0.00 | 0.00 | 82 | 1007.7 | |
| 20260510130517 | 62 | 0.0 | 0.0 | 0.00 | 0.00 | 0.00 | 84 | 1007.9 | |
| 20260510125516 | 61 | 0.0 | 0.0 | 0.00 | 0.00 | 0.00 | 89 | 1008.1 | |
| 20260510124516 | 59 | 0.0 | 0.0 | 0.00 | 0.00 | 0.00 | 93 | 1008.2 | |
| 20260510123517 | 58 | 0.0 | 0.0 | 0.00 | 0.00 | 0.00 | 94 | 1008.2 | |
| 20260510122517 | 57 | 0.0 | 0.0 | 0.00 | 0.00 | 0.00 | 96 | 1008.2 | |
| 20260510121517 | 56 | 0.0 | 0.0 | 0.00 | 0.00 | 0.00 | 96 | 1008.0 | |
| 20260510120517 | 55 | 0.0 | 0.0 | 0.00 | 0.00 | 0.00 | 96 | 1007.8 | |
| 20260510115516 | 55 | 0.0 | 0.0 | 0.00 | 0.00 | 0.00 | 96 | 1007.7 | |
| 20260510114516 | 54 | 0.0 | 0.0 | 0.00 | 0.00 | 0.00 | 97 | 1007.5 | |
| 20260510113517 | 53 | 0.0 | 0.0 | 0.00 | 0.00 | 0.00 | 97 | 1007.5 | |
| 20260510112516 | 53 | 0.0 | 0.0 | 0.00 | 0.00 | 0.00 | 97 | 1007.3 | |
| 20260510111516 | 52 | 0.0 | 0.0 | 0.00 | 0.00 | 0.00 | 97 | 1007.1 | |
| 20260510110517 | 52 | 0.0 | 0.0 | 0.00 | 0.00 | 0.00 | 97 | 1007.0 | |
| 20260510105516 | 52 | 0.0 | 0.0 | 0.00 | 0.00 | 0.00 | 97 | 1006.9 | |
| 20260510104516 | 52 | 0.0 | 0.0 | 0.00 | 0.00 | 0.00 | 97 | 1006.8 | |
| 20260510103517 | 52 | 0.0 | 0.0 | 0.00 | 0.00 | 0.00 | 97 | 1006.7 | |
| 20260510102516 | 52 | 0.0 | 0.0 | 0.00 | 0.00 | 0.00 | 97 | 1006.6 | |
| 20260510101517 | 52 | 0.0 | 0.0 | 0.00 | 0.00 | 0.00 | 97 | 1006.5 | |
| 20260510100517 | 52 | 0.0 | 0.0 | 0.00 | 0.00 | 0.00 | 97 | 1006.3 | |
| 20260510095516 | 52 | 0.0 | 0.0 | 0.00 | 0.00 | 0.00 | 97 | 1006.3 | |
| 20260510094517 | 52 | 0.0 | 0.0 | 0.00 | 0.00 | 0.00 | 97 | 1006.3 | |
| 20260510093517 | 52 | 0.0 | 0.0 | 0.00 | 0.00 | 0.00 | 97 | 1006.3 | |
| 20260510092516 | 52 | 0.0 | 0.0 | 0.00 | 0.00 | 0.00 | 97 | 1006.3 | |
| 20260510091517 | 53 | 0.0 | 0.0 | 0.00 | 0.00 | 0.00 | 97 | 1006.2 | |
| 20260510090517 | 53 | 0.0 | 0.0 | 0.00 | 0.00 | 0.00 | 97 | 1006.1 | |
| 20260510085516 | 53 | 0.0 | 0.0 | 0.00 | 0.00 | 0.00 | 97 | 1006.1 | |
| 20260510084516 | 53 | 0.0 | 0.0 | 0.00 | 0.00 | 0.00 | 97 | 1006.0 | |
| 20260510083518 | 53 | 0.0 | 0.0 | 0.00 | 0.00 | 0.00 | 97 | 1005.8 | |
| 20260510082517 | 53 | 0.0 | 0.0 | 0.00 | 0.00 | 0.00 | 97 | 1005.7 | |
| 20260510081517 | 53 | 0.0 | 0.0 | 0.00 | 0.00 | 0.00 | 97 | 1005.7 | |
| 20260510080517 | 53 | 0.0 | 0.0 | 0.00 | 0.00 | 0.00 | 97 | 1005.5 | |
| 20260510075557 | 53 | 0.0 | 0.0 | 0.00 | 0.00 | 0.00 | 97 | 1005.6 | |
| 20260510074517 | 53 | 0.0 | 0.0 | 0.00 | 0.00 | 0.00 | 97 | 1005.4 | |
| 20260510073537 | 54 | 0.0 | 0.0 | 0.00 | 0.00 | 0.00 | 97 | 1005.3 | |
| 20260510072517 | 54 | 0.0 | 0.0 | 0.00 | 0.00 | 0.00 | 97 | 1005.2 | |
| 20260510071517 | 54 | 0.0 | 0.0 | 0.00 | 0.00 | 0.00 | 97 | 1005.1 | |
| 20260510070523 | 54 | 0.0 | 0.0 | 0.00 | 0.00 | 0.00 | 96 | 1005.0 | |
| 20260510065517 | 54 | 0.0 | 0.0 | 0.00 | 0.00 | 0.00 | 96 | 1004.8 | |
| 20260510064517 | 55 | 0.0 | 0.0 | 0.00 | 0.00 | 0.00 | 96 | 1004.7 | |
| 20260510063517 | 55 | 0.0 | 0.0 | 0.00 | 0.00 | 0.00 | 96 | 1004.8 | |
| 20260510062537 | 55 | 0.0 | 0.0 | 0.00 | 0.00 | 0.00 | 96 | 1004.9 | |
| 20260510061516 | 55 | 0.0 | 0.0 | 0.00 | 0.00 | 0.00 | 96 | 1004.8 | |
| 20260510060517 | 55 | 0.0 | 0.0 | 0.00 | 0.00 | 0.00 | 96 | 1004.9 | |
| 20260510055517 | 55 | 0.0 | 0.0 | 0.00 | 0.00 | 0.00 | 96 | 1004.9 | |
| 20260510054516 | 56 | 0.0 | 0.0 | 0.00 | 0.00 | 0.00 | 96 | 1004.9 | |
| 20260510053517 | 56 | 0.0 | 0.0 | 0.00 | 0.00 | 0.00 | 96 | 1005.0 | |
| 20260510052517 | 56 | 0.0 | 0.0 | 0.00 | 0.00 | 0.00 | 96 | 1004.9 | |
| 20260510051516 | 56 | 0.0 | 0.0 | 0.00 | 0.00 | 0.00 | 96 | 1004.8 | |
| 20260510050517 | 56 | 0.0 | 0.0 | 0.00 | 0.00 | 0.00 | 96 | 1004.9 | |
| 20260510045538 | 57 | 0.0 | 0.0 | 0.00 | 0.00 | 0.00 | 96 | 1004.8 | |
| 20260510044557 | 57 | 0.0 | 0.0 | 0.00 | 0.00 | 0.00 | 96 | 1004.7 | |
| 20260510043517 | 57 | 0.0 | 0.0 | 0.00 | 0.00 | 0.00 | 96 | 1004.7 | |
| 20260510042537 | 57 | 0.0 | 0.0 | 0.00 | 0.00 | 0.00 | 96 | 1004.8 | |
| 20260510041516 | 57 | 0.0 | 0.0 | 0.00 | 0.00 | 0.00 | 96 | 1004.7 | |
| 20260510040537 | 58 | 0.0 | 0.0 | 0.00 | 0.00 | 0.00 | 95 | 1004.8 | |
| 20260510035537 | 58 | 0.0 | 0.0 | 0.00 | 0.00 | 0.00 | 95 | 1004.8 | |
| 20260510034517 | 58 | 0.0 | 0.0 | 0.00 | 0.00 | 0.00 | 95 | 1004.6 | |
| 20260510033517 | 59 | 0.0 | 0.0 | 0.00 | 0.00 | 0.00 | 95 | 1004.6 | |
| 20260510032517 | 59 | 0.0 | 0.0 | 0.00 | 0.00 | 0.00 | 95 | 1004.6 | |
| 20260510031516 | 59 | 0.0 | 0.0 | 0.00 | 0.00 | 0.00 | 94 | 1004.5 | |
| 20260510030516 | 60 | 0.0 | 0.0 | 0.00 | 0.00 | 0.00 | 94 | 1004.5 | |
| 20260510025517 | 60 | 0.0 | 0.0 | 0.00 | 0.00 | 0.00 | 94 | 1004.5 | |
| 20260510024517 | 60 | 0.0 | 0.0 | 0.00 | 0.00 | 0.00 | 93 | 1004.4 | |
| 20260510023517 | 60 | 0.0 | 0.0 | 0.00 | 0.00 | 0.00 | 93 | 1004.2 | |
| 20260510022517 | 61 | 0.0 | 0.0 | 0.00 | 0.00 | 0.00 | 92 | 1004.2 | |
| 20260510021517 | 61 | 0.0 | 0.0 | 0.00 | 0.00 | 0.00 | 92 | 1004.1 | |
| 20260510020516 | 61 | 0.0 | 0.0 | 0.00 | 0.00 | 0.00 | 91 | 1004.0 | |
| 20260510015516 | 62 | 0.0 | 0.0 | 0.00 | 0.00 | 0.00 | 91 | 1003.8 | |
| 20260510014517 | 62 | 0.0 | 0.0 | 0.00 | 0.00 | 0.00 | 91 | 1003.8 | |
| 20260510013516 | 62 | 0.0 | 0.0 | 0.00 | 0.00 | 0.00 | 90 | 1003.5 | |
| 20260510012537 | 62 | 0.0 | 0.0 | 0.00 | 0.00 | 0.00 | 91 | 1003.5 | |
| 20260510011517 | 62 | 0.0 | 0.0 | 0.00 | 0.00 | 0.00 | 90 | 1003.3 | |
| 20260510010557 | 62 | 0.0 | 0.0 | 0.00 | 0.00 | 0.00 | 90 | 1003.2 | |
| 20260510005517 | 63 | 0.0 | 0.0 | 0.00 | 0.00 | 0.00 | 89 | 1003.2 | |
| 20260510004518 | 63 | 0.0 | 0.0 | 0.00 | 0.00 | 0.00 | 89 | 1003.1 | |
| 20260510003517 | 64 | 0.0 | 0.0 | 0.00 | 0.00 | 0.00 | 88 | 1003.0 | |
| 20260510002516 | 64 | 0.0 | 0.0 | 0.00 | 0.00 | 0.00 | 86 | 1002.9 | |
| 20260510001516 | 65 | 0.0 | 0.0 | 0.00 | 0.00 | 0.00 | 84 | 1002.9 | |
| 20260510000517 | 66 | 0.0 | 0.0 | 0.00 | 0.00 | 0.00 | 83 | 1002.7 | |
| 20260509235517 | 66 | 0.0 | 0.0 | 0.00 | 0.00 | 0.00 | 82 | 1002.6 | |
| 20260509234557 | 67 | 0.0 | 0.0 | 0.00 | 0.00 | 0.00 | 80 | 1002.6 | |
| 20260509233517 | 67 | 0.0 | 0.0 | 0.00 | 0.00 | 0.00 | 79 | 1002.5 | |
| 20260509232516 | 68 | 0.0 | 0.0 | 0.00 | 0.00 | 0.00 | 76 | 1002.5 | |
| 20260509231517 | 69 | 0.0 | 0.0 | 0.00 | 0.00 | 0.00 | 74 | 1002.6 | |
| 20260509230518 | 69 | 0.0 | 0.0 | 0.00 | 0.00 | 0.00 | 73 | 1002.5 | |
| 20260509225517 | 69 | 0.0 | 0.0 | 0.00 | 0.00 | 0.00 | 73 | 1002.5 | |
| 20260509224517 | 69 | 0.0 | 0.0 | 0.00 | 0.00 | 0.00 | 72 | 1002.4 | |
| 20260509223517 | 70 | 0.0 | 0.0 | 0.00 | 0.00 | 0.00 | 70 | 1002.6 | |
| 20260509222517 | 70 | 0.0 | 0.0 | 0.00 | 0.00 | 0.00 | 71 | 1002.6 | |
| 20260509221517 | 70 | 0.0 | 0.0 | 0.00 | 0.00 | 0.00 | 66 | 1002.7 | |
| 20260509220516 | 71 | 0.0 | 0.0 | 0.00 | 0.00 | 0.00 | 64 | 1002.7 | |
| 20260509215517 | 71 | 0.0 | 0.0 | 0.00 | 0.00 | 0.00 | 63 | 1002.6 | |
| 20260509214517 | 71 | 0.0 | 0.0 | 0.00 | 0.00 | 0.00 | 63 | 1002.6 | |
| 20260509213517 | 71 | 0.0 | 0.0 | 0.00 | 0.00 | 0.00 | 64 | 1002.5 | |
| 20260509212516 | 71 | 0.0 | 0.0 | 0.00 | 0.00 | 0.00 | 63 | 1002.5 | |
| 20260509211537 | 71 | 0.0 | 0.0 | 0.00 | 0.00 | 0.00 | 61 | 1002.4 | |
| 20260509210517 | 71 | 0.0 | 0.0 | 0.00 | 0.00 | 0.00 | 64 | 1002.4 | |
| 20260509205536 | 71 | 0.0 | 0.0 | 0.00 | 0.00 | 0.00 | 65 | 1002.4 | |
| 20260509204516 | 70 | 197 | 0.0 | 1.0 | 0.00 | 0.00 | 0.00 | 67 | 1002.4 |
| 20260509203517 | 71 | 0.0 | 0.0 | 0.00 | 0.00 | 0.00 | 63 | 1002.3 | |
| 20260509202517 | 71 | 0.0 | 0.0 | 0.00 | 0.00 | 0.00 | 64 | 1002.3 | |
| 20260509201517 | 70 | 0.0 | 0.0 | 0.00 | 0.00 | 0.00 | 66 | 1002.5 | |
| 20260509200516 | 71 | 0.0 | 1.0 | 0.00 | 0.00 | 0.00 | 66 | 1002.8 | |
| 20260509195557 | 71 | 0.0 | 0.0 | 0.00 | 0.00 | 0.00 | 66 | 1002.9 | |
| 20260509194517 | 70 | 276 | 0.0 | 1.0 | 0.00 | 0.00 | 0.00 | 64 | 1003.0 |
| 20260509193516 | 70 | 0.0 | 0.0 | 0.00 | 0.00 | 0.00 | 64 | 1003.3 | |
| 20260509192517 | 70 | 0.0 | 0.0 | 0.00 | 0.00 | 0.00 | 65 | 1003.3 | |
| 20260509191517 | 70 | 0.0 | 1.0 | 0.00 | 0.00 | 0.00 | 63 | 1003.3 | |
| 20260509190517 | 70 | 273 | 0.0 | 1.0 | 0.00 | 0.00 | 0.00 | 63 | 1003.4 |
| 20260509185516 | 69 | 0.0 | 0.0 | 0.00 | 0.00 | 0.00 | 66 | 1003.6 | |
| 20260509184536 | 69 | 275 | 0.0 | 1.0 | 0.00 | 0.00 | 0.00 | 65 | 1003.7 |
| 20260509183517 | 69 | 0.0 | 1.0 | 0.00 | 0.00 | 0.00 | 65 | 1003.9 | |
| 20260509182517 | 69 | 0.0 | 0.0 | 0.00 | 0.00 | 0.00 | 65 | 1004.2 | |
| 20260509181557 | 69 | 0.0 | 1.0 | 0.00 | 0.00 | 0.00 | 65 | 1004.3 | |
| 20260509180517 | 69 | 255 | 0.0 | 1.0 | 0.00 | 0.00 | 0.00 | 64 | 1004.3 |
| 20260509175517 | 68 | 0.0 | 0.0 | 0.00 | 0.00 | 0.00 | 66 | 1004.5 |